Location: Eastlake (historical)
(39.0077°N, 122.6678°W)
Time: 03:43:45
(UTC+00:00)

CZ-2C R/B - Pass Details

Date: 25 November 2020
Orbit: 785 x 870 km, 98.2° (Epoch: 24 January)

Event Time Altitude Azimuth Distance (km) Brightness Sun altitude
Rises 14:27:16 0° 156° (SSE) 3,427 6.6 -7.6°
Reaches altitude 10° 14:29:40 10° 152° (SSE) 2,486 5.9 -7.1°
Maximum altitude 14:35:07 61° 73° (ENE) 955 3.3 -6.2°
Drops below altitude 10° 14:40:28 10° 355° (N) 2,452 4.8 -5.2°
Sets 14:42:50 0° 352° (N) 3,376 5.5 -4.8°
